This is the latest recevied weather packets stored in our database for station/object IK3ZGB. If no packets are shown the sender has not sent any weather packets the latest 10 day(s).
| Time | Temp. | Humidity | Pressure | Rain* | Wind** | Luminosity | Snow |
|---|---|---|---|---|---|---|---|
| 1777760326 | 16.11° C | 63% | 1021.9 hPa | - | - | - | - |
| 1777759724 | 16.67° C | 63% | 1021.8 hPa | - | - | - | - |
| 1777759124 | 16.11° C | 64% | 1021.4 hPa | - | - | - | - |
| 1777758525 | 16.11° C | 63% | 1021.5 hPa | - | - | - | - |
| 1777757925 | 16.11° C | 63% | 1021.5 hPa | - | - | - | - |
| 1777757326 | 16.67° C | 63% | 1021.5 hPa | - | - | - | - |
| 1777756725 | 16.67° C | 62% | 1021.2 hPa | - | - | - | - |
| 1777756125 | 16.67° C | 62% | 1021.4 hPa | - | - | - | - |
| 1777755525 | 17.78° C | 61% | 1021.2 hPa | - | - | - | - |
| 1777754924 | 17.78° C | 61% | 1021.4 hPa | - | - | - | - |
| 1777754324 | 17.78° C | 60% | 1021.2 hPa | - | - | - | - |
| 1777753725 | 17.78° C | 60% | 1021.4 hPa | - | - | - | - |
| 1777753125 | 17.78° C | 60% | 1021.1 hPa | - | - | - | - |
| 1777752525 | 18.33° C | 58% | 1020.9 hPa | - | - | - | - |
| 1777751924 | 18.89° C | 58% | 1021.1 hPa | - | - | - | - |
| 1777751325 | 18.89° C | 58% | 1021 hPa | - | - | - | - |
| 1777750724 | 19.44° C | 57% | 1021.2 hPa | - | - | - | - |
| 1777750124 | 19.44° C | 57% | 1020.9 hPa | - | - | - | - |
| 1777749525 | 19.44° C | 56% | 1020.7 hPa | - | - | - | - |
| 1777748925 | 20° C | 56% | 1020.6 hPa | - | - | - | - |
| 1777748325 | 20° C | 55% | 1020.5 hPa | - | - | - | - |
| 1777747724 | 20.56° C | 54% | 1020.3 hPa | - | - | - | - |
| 1777747125 | 21.11° C | 53% | 1020.3 hPa | - | - | - | - |
| 1777746525 | 21.67° C | 53% | 1020.2 hPa | - | - | - | - |
| 1777745924 | 21.67° C | 52% | 1020.1 hPa | - | - | - | - |
* Rain since midnight (hover to see other rain measurements)
** Current wind speed in m/s (hover to see current wind gust speed)